Bartlesville, OK

7:58 AM CDT on March 27, 2017 (GMT -0500)
Bartlesville Municipal

Weather History for KBVO - June, 2014

Change the Weather History Date:

Tuesday, June 17, 2014

  Actual Average Record
Temperature  
Mean Temperature 82 °F -  
Max Temperature 88 °F 88 °F 99 °F (1953)
Min Temperature 75 °F 65 °F 51 °F (1960)
Cooling Degree Days 16    
Growing Degree Days 32 (Base 50)    
Moisture  
Dew Point 71 °F    
Average Humidity 71    
Maximum Humidity 82    
Minimum Humidity 63    
Precipitation  
Precipitation 0.00 in - - ()
Sea Level Pressure  
Sea Level Pressure 29.85 in    
Wind  
Wind Speed 11 mph (South)    
Max Wind Speed 18 mph    
Max Gust Speed 30 mph    
Visibility 10 miles    
Events      
Averages and records for this station are not official NWS values.
T = Trace of Precipitation, MM = Missing Value Source: NWS Daily Summary

Daily Weather History Graph

Daily Weather History Graph

Search for Another Location

Airport or City:

Trip Planner

Search our weather history database for the weather conditions in past years. The results will help you decide how hot, cold, wet, or windy it might be!

Date:

Astronomy

Jun. 17, 2014 Rise Set
Actual Time 6:04 AM CDT 8:45 PM CDT
Civil Twilight 5:34 AM CDT 9:16 PM CDT
Nautical Twilight 4:55 AM CDT 9:54 PM CDT
Astronomical Twilight 4:12 AM CDT 10:37 PM CDT
Moon No Moon Rise 11:13 AM CDT (6/17)
Length of Visible Light 15h 41m
Length of Day
14h 40m
Waning Gibbous, 73% of the Moon is Illuminated
Jun 17
Waning Gibbous
Jun 19
Last Quarter
Jun 27
New
Jul 5
First Quarter
Jul 12
Full

Hourly Weather History & Observations

Time (CDT) Temp. Heat Index Dew Point Humidity Pressure Visibility Wind Dir Wind Speed Gust Speed Precip Events Conditions
12:53 AM 79.0 °F - 70.0 °F 74% 29.84 in 10.0 mi South 10.4 mph 19.6 mph N/A   Clear
1:53 AM 78.1 °F - 69.1 °F 74% 29.82 in 10.0 mi South 8.1 mph 19.6 mph N/A   Clear
2:53 AM 78.1 °F - 69.1 °F 74% 29.82 in 10.0 mi South 10.4 mph 20.7 mph N/A   Clear
3:53 AM 77.0 °F - 69.1 °F 76% 29.82 in 10.0 mi South 11.5 mph 21.9 mph N/A   Clear
4:53 AM 77.0 °F - 69.1 °F 76% 29.84 in 10.0 mi South 12.7 mph 21.9 mph N/A   Clear
5:53 AM 75.9 °F - 70.0 °F 82% 29.86 in 10.0 mi South 10.4 mph 18.4 mph N/A   Clear
6:53 AM 75.9 °F - 70.0 °F 82% 29.87 in 10.0 mi South 9.2 mph - N/A   Clear
7:53 AM 78.1 °F - 71.1 °F 79% 29.88 in 10.0 mi South 11.5 mph 19.6 mph N/A   Clear
8:53 AM 81.0 °F 85.2 °F 72.0 °F 74% 29.89 in 10.0 mi South 11.5 mph 23.0 mph N/A   Partly Cloudy
9:53 AM 82.0 °F 86.7 °F 72.0 °F 71% 29.88 in 10.0 mi South 18.4 mph 29.9 mph N/A   Scattered Clouds
10:43 AM 82.0 °F 86.3 °F 71.1 °F 69% 29.92 in 10.0 mi SSW 12.7 mph 26.5 mph N/A   Mostly Cloudy
10:53 AM 84.0 °F 89.6 °F 72.0 °F 67% 29.88 in 10.0 mi South 12.7 mph 25.3 mph N/A   Mostly Cloudy
11:28 AM 82.9 °F 88.0 °F 72.0 °F 69% 29.92 in 10.0 mi South 15.0 mph 24.2 mph N/A   Overcast
11:40 AM 82.9 °F 88.0 °F 72.0 °F 69% 29.92 in 10.0 mi South 15.0 mph 24.2 mph N/A   Overcast
11:53 AM 84.0 °F 89.6 °F 72.0 °F 67% 29.88 in 10.0 mi South 11.5 mph 24.2 mph N/A   Overcast
12:53 PM 86.0 °F 93.0 °F 73.0 °F 65% 29.87 in 10.0 mi South 16.1 mph 24.2 mph N/A   Mostly Cloudy
1:53 PM 87.1 °F 94.5 °F 73.0 °F 63% 29.85 in 10.0 mi South 15.0 mph 24.2 mph N/A   Mostly Cloudy
3:53 PM 88.0 °F 96.5 °F 73.9 °F 63% 29.82 in 10.0 mi South 15.0 mph 24.2 mph N/A   Mostly Cloudy
4:53 PM 86.0 °F 93.0 °F 73.0 °F 65% 29.82 in 10.0 mi South 12.7 mph 21.9 mph N/A   Mostly Cloudy
5:53 PM 88.0 °F 96.5 °F 73.9 °F 63% 29.81 in 10.0 mi South 8.1 mph 23.0 mph N/A   Partly Cloudy
6:53 PM 86.0 °F 93.0 °F 73.0 °F 65% 29.81 in 10.0 mi South 11.5 mph 19.6 mph N/A   Mostly Cloudy
7:53 PM 84.0 °F 89.6 °F 72.0 °F 67% 29.81 in 10.0 mi South 11.5 mph 18.4 mph N/A   Clear
8:53 PM 82.0 °F 86.7 °F 72.0 °F 71% 29.82 in 10.0 mi South 9.2 mph 20.7 mph N/A   Clear
9:53 PM 81.0 °F 84.9 °F 71.1 °F 72% 29.83 in 10.0 mi South 10.4 mph - N/A   Clear
10:53 PM 80.1 °F 83.2 °F 70.0 °F 71% 29.84 in 10.0 mi South 9.2 mph - N/A   Clear
11:53 PM 79.0 °F - 71.1 °F 77% 29.84 in 10.0 mi South 8.1 mph - N/A   Clear